This is the latest recevied weather packets stored in our database for station/object K5KHP. If no packets are shown the sender has not sent any weather packets the latest 10 day(s).
| Time | Temp. | Humidity | Pressure | Rain* | Wind** | Luminosity | Snow |
|---|---|---|---|---|---|---|---|
| 1777990747 | 12.22° C | 91% | 1013.3 hPa | 0 mm | - | 54 W/m² | - |
| 1777990445 | 12.22° C | 91% | 1013.4 hPa | 0 mm | - | 41 W/m² | - |
| 1777989838 | 11.67° C | 92% | 1013.2 hPa | 0 mm | - | 32 W/m² | - |
| 1777989535 | 11.67° C | 92% | 1013.4 hPa | 0 mm | - | 26 W/m² | - |
| 1777989231 | 11.67° C | 92% | 1013.1 hPa | 0 mm | - | 22 W/m² | - |
| 1777988927 | 11.67° C | 92% | 1013.2 hPa | 0 mm | - | 19 W/m² | - |
| 1777988624 | 11.67° C | 92% | 1013.3 hPa | 0 mm | - | 16 W/m² | - |
| 1777988321 | 11.67° C | 92% | 1013.2 hPa | 0 mm | - | 13 W/m² | - |
| 1777988018 | 11.67° C | 93% | 1012.8 hPa | 0 mm | - | 11 W/m² | - |
| 1777987713 | 11.67° C | 93% | 1013 hPa | 0 mm | - | 9 W/m² | - |
| 1777987411 | 11.11° C | 93% | 1013.1 hPa | 0 mm | - | 7 W/m² | - |
| 1777987108 | 11.11° C | 93% | 1013 hPa | 0 mm | - | 4 W/m² | - |
| 1777986805 | 11.11° C | 93% | 1013 hPa | 0 mm | - | 3 W/m² | - |
| 1777986503 | 11.11° C | 94% | 1013.1 hPa | 0 mm | - | 1 W/m² | - |
| 1777986201 | 11.11° C | 94% | 1013 hPa | 0 mm | - | 0 W/m² | - |
| 1777985898 | 11.11° C | 93% | 1012.9 hPa | 0 mm | - | 0 W/m² | - |
| 1777985595 | 11.11° C | 93% | 1013 hPa | 0 mm | - | 0 W/m² | - |
| 1777985291 | 11.67° C | 93% | 1012.7 hPa | 0 mm | - | 0 W/m² | - |
| 1777984988 | 11.11° C | 93% | 1012.9 hPa | 0 mm | - | 0 W/m² | - |
| 1777984684 | 11.67° C | 93% | 1012.8 hPa | 0 mm | - | 0 W/m² | - |
| 1777984381 | 11.67° C | 94% | 1012.8 hPa | 0 mm | - | 0 W/m² | - |
| 1777984077 | 11.11° C | 94% | 1012.9 hPa | 0 mm | - | 0 W/m² | - |
| 1777983775 | 11.11° C | 94% | 1012.9 hPa | 0 mm | - | 0 W/m² | - |
| 1777983471 | 11.11° C | 94% | 1013.1 hPa | 0 mm | - | 0 W/m² | - |
| 1777983168 | 11.67° C | 94% | 1012.8 hPa | 0 mm | - | 0 W/m² | - |
* Rain latest hour (hover to see other rain measurements)
** Current wind speed in m/s (hover to see current wind gust speed)